Tracking 31027 objects as of 19-Jul-2025
HD Live streaming from Space Station
objects crossing your sky now

COSMOS 2269

Track COSMOS 2269 now!
10-day predictions
COSMOS 2269 is classified as:


NORAD ID: 23000
Int'l Code: 1994-011B
Perigee: 1,417.5 km
Apogee: 1,426.8 km
Inclination: 82.6 °
Period: 114.1 minutes
Semi major axis: 7793 km
RCS: 1.1181 m2 (large)
Launch date: February 12, 1994
Source: Commonwealth of Independent States (former USSR) (CIS)
Launch site: PLESETSK MISSILE AND SPACE COMPLEX (PKMTR)
Your satellite tracking list
RESURS O1 DEB
Track 1 satellite(s)




NASA's NSSDC Master Catalog

Two Line Element Set (TLE):
1 23000U 94011B   25199.41553495  .00000041  00000-0  16907-3 0  9993
2 23000  82.5682 174.2404 0005958 218.7891 261.1260 12.61933120447576
Source of the keplerian elements: AFSPC